Temp
71 71 72 72 72 72 71 71 72 73 73 73 74 74 74 75 75 74 74 75 74 75 75 74 74 75 74 76 75 76 75 73 73 74 73 74 74 74 75 74 73 72 72
72 71 71 72 72 72 72 72 73 73 73 73 73 72 73 73 74 73 74 77 74 75 75 74 75 76 74 74 74 74 74 75 74 73 73 73 74 73 72 71 71 71 71
71 71 71 71 71 71 72 72 73 73 73 73 72 72 72 72 72 74 74 74 75 75 75 75 75 75 74 73 74 74 74 75 74 72 73 72 73 72 71 71 70 69 70
71 71 70 70 71 71 72 72 72 73 73 72 72 72 72 72 72 73 74 74 74 75 76 75 75 75 74 74 74 74 74 74 73 72 72 72 72 72 72 69 68 68 66
69 69 70 70 70 70 71 71 72 72 73 73 72 71 72 72 75 72 74 74 73 74 74 75 76 75 72 72 75 74 72 72 72 71 71 70 70 70 70 70 68 66 65
69 69 69 68 69 70 70 70 71 71 72 71 71 71 71 74 70 69 72 74 74 74 74 75 76 73 73 69 68 70 72 72 71 70 71 70 71 71 70 69 67 65 64
68 68 69 69 68 68 70 69 69 69 69 70 71 71 71 72 67 67 69 75 74 74 74 74 75 78 73 76 70 67 67 68 70 73 72 71 71 72 72 70 68 68 68
67 68 68 68 68 69 69 69 69 69 68 68 68 70 70 71 65 65 67 72 74 74 75 75 74 75 74 74 74 73 72 72 71 75 74 75 74 75 74 74 71 67 63
67 67 68 68 68 68 68 68 68 68 68 68 70 69 69 71 64 63 65 69 70 72 74 74 74 74 70 65 72 71 72 70 64 62 63 63 64 65 68 71 67 65 63
69 69 69 69 68 67 67 66 67 67 68 68 70 70 68 72 65 62 63 69 70 71 73 73 66 72 65 61 72 72 70 71 66 64 65 64 65 66 64 71 70 67 61
69 69 70 69 68 68 67 66 67 67 68 69 69 69 72 71 71 61 59 69 71 71 71 72 72 62 60 58 61 72 70 68 63 63 63 64 65 65 65 66 68 66 61
69 69 69 69 69 69 68 68 68 68 68 68 68 68 70 71 62 60 58 58 63 69 70 71 70 59 58 58 59 62 60 62 61 60 59 59 59 60 61 62 62 60 60
67 67 68 67 68 68 68 67 67 67 66 67 66 67 68 67 66 59 57 57 58 61 64 64 58 56 55 56 58 59 59 63 61 59 59 58 58 58 59 59 59 57 55
66 66 66 66 66 68 65 64 65 65 64 64 64 65 66 67 66 66 65 64 60 61 61 63 61 59 58 61 60 60 64 64 63 60 58 57 58 57 57 58 56 55 53
66 65 65 64 65 65 58 56 58 59 57 61 61 61 61 63 62 51 52 62 63 60 60 61 61 61 61 61 61 61 63 63 60 58 58 57 57 57 56 57 57 55 54
65 64 63 62 64 63 59 56 49 49 47 45 44 48 56 52 49 47 45 46 49 51 60 61 60 60 60 60 60 59 60 59 58 58 58 58 56 56 56 56 56 54 52
63 63 63 60 64 63 60 57 58 54 47 45 44 44 43 46 45 44 44 45 47 52 60 59 59 59 58 58 58 58 58 57 58 58 57 56 56 55 55 55 55 56 57
63 54 60 61 63 63 62 60 60 59 57 56 48 45 44 43 41 43 44 50 57 57 58 57 57 57 57 57 57 57 57 57 57 57 57 56 54 54 54 56 57 57 57
63 63 64 64 63 61 60 58 57 56 55 54 55 50 47 42 44 46 49 58 57 57 57 57 57 57 57 57 56 56 56 55 55 54 53 52 52 56 56 56 56 53 54
64 61 61 63 61 59 58 57 56 55 56 56 56 56 57 56 57 57 57 57 57 57 56 56 56 57 57 56 55 55 54 53 53 53 54 57 58 58 57 57 57 57 57
62 63 62 62 60 59 59 57 57 57 56 57 56 54 49 58 57 57 57 57 57 57 56 57 57 57 57 57 56 56 55 54 54 55 56 55 59 60 59 58 59 58 59
59 62 63 61 60 58 59 59 58 58 58 57 56 55 48 58 59 59 59 59 57 58 59 58 57 57 57 56 56 56 56 57 59 60 60 58 59 58 59 60 62 61 61
58 59 61 61 60 57 57 59 60 59 59 58 58 59 59 60 61 61 59 61 59 58 60 60 58 57 59 60 62 62 61 61 61 61 61 61 61 62 63 62 62 61 61
60 59 59 61 59 58 58 58 60 55 59 59 59 60 60 61 62 62 62 62 62 60 61 62 63 63 61 62 62 63 62 61 63 64 63 63 62 58 62 62 62 61 61
60 60 60 61 59 58 57 58 59 59 59 60 60 60 60 61 62 63 63 63 63 62 61 62 62 62 63 61 63 62 52 45 61 53 64 63 62 60 61 62 61 61 59
59 59 61 61 59 58 58 57 58 58 60 60 61 60 61 61 62 63 63 63 63 63 63 64 64 64 64 64 63 53 37 41 52 45 59 61 61 61 61 60 60 61 61
MSLP
1013.92 1014.28 1014.67 1014.96 1015.19 1015.41 1015.72 1015.95 1016.12 1016.38 1016.43 1016.43 1016.47 1016.63 1016.82 1016.94 1017.11 1017.36 1017.39 1017.52 1017.69 1017.70 1017.79 1017.95 1018.01 1017.99 1018.01 1018.24 1018.45 1018.59 1018.51 1018.48 1018.42 1018.11 1018.15 1018.08 1018.18 1018.34 1018.45 1018.87 1019.10 1019.36 1019.78
1013.21 1013.61 1013.93 1014.28 1014.80 1015.12 1015.27 1015.48 1015.62 1015.68 1016.10 1016.23 1016.36 1016.33 1016.54 1016.70 1016.83 1017.05 1017.21 1017.25 1017.49 1017.54 1017.50 1017.70 1017.63 1017.76 1017.85 1018.02 1018.32 1018.29 1018.25 1018.18 1018.15 1018.06 1018.00 1017.98 1018.17 1018.41 1018.61 1018.89 1019.11 1019.46 1019.83
1013.05 1013.37 1013.64 1013.85 1014.08 1014.31 1014.59 1014.83 1015.07 1015.24 1015.55 1015.89 1016.18 1016.17 1016.14 1016.26 1016.52 1016.64 1016.90 1017.07 1017.15 1017.18 1017.23 1017.23 1017.19 1017.36 1017.48 1017.70 1017.88 1017.95 1018.00 1017.98 1018.03 1018.04 1017.92 1018.01 1018.21 1018.45 1018.75 1018.97 1019.26 1019.62 1019.96
1012.74 1013.13 1013.36 1013.54 1013.63 1013.83 1014.21 1014.55 1014.66 1014.79 1015.08 1015.37 1015.68 1015.88 1015.96 1016.09 1016.39 1016.51 1016.60 1016.68 1016.91 1016.85 1016.85 1016.87 1016.95 1017.11 1017.23 1017.36 1017.50 1017.49 1017.73 1017.75 1017.89 1018.01 1017.95 1017.97 1018.14 1018.38 1018.54 1018.94 1019.40 1019.85 1020.29
1012.45 1012.78 1013.02 1013.44 1013.74 1013.95 1014.06 1014.21 1014.32 1014.63 1014.75 1014.88 1015.13 1015.34 1015.63 1015.83 1015.87 1016.03 1016.21 1016.29 1016.47 1016.49 1016.53 1016.50 1016.54 1016.65 1016.70 1016.88 1017.20 1017.22 1017.51 1017.49 1017.58 1017.73 1017.83 1017.83 1017.89 1018.11 1018.22 1018.56 1019.08 1019.65 1020.29
1012.16 1012.31 1012.80 1013.31 1013.62 1013.88 1013.99 1013.96 1014.24 1014.22 1014.50 1014.75 1014.72 1014.90 1015.11 1015.32 1015.44 1015.59 1015.56 1015.67 1015.79 1015.90 1015.96 1015.97 1015.97 1016.11 1016.26 1016.43 1016.59 1016.61 1016.80 1016.89 1017.07 1017.23 1017.25 1017.31 1017.23 1017.48 1017.77 1018.18 1018.74 1019.39 1020.02
1012.05 1012.27 1012.56 1013.02 1013.37 1013.72 1013.73 1013.98 1013.80 1013.88 1014.27 1014.45 1014.40 1014.61 1014.72 1014.68 1014.65 1014.80 1015.07 1015.19 1015.14 1015.16 1015.21 1015.33 1015.42 1015.42 1015.55 1015.73 1015.75 1015.88 1015.98 1016.07 1016.09 1016.22 1016.45 1016.57 1016.64 1016.70 1017.15 1017.67 1018.09 1018.55 1018.90
1012.02 1012.25 1012.46 1012.62 1012.82 1013.04 1013.25 1013.24 1013.51 1013.73 1013.75 1013.92 1014.01 1014.02 1014.01 1014.10 1014.23 1014.03 1014.20 1014.60 1014.66 1014.50 1014.48 1014.54 1014.63 1014.67 1014.78 1014.99 1015.26 1015.43 1015.42 1015.60 1015.75 1015.65 1015.69 1015.75 1016.04 1016.18 1016.39 1016.66 1017.19 1018.27 1019.01
1011.80 1011.98 1012.08 1012.39 1012.65 1012.87 1012.95 1013.07 1013.19 1013.30 1013.46 1013.38 1013.41 1013.49 1013.46 1013.24 1013.16 1013.31 1013.59 1013.75 1013.77 1013.68 1013.57 1013.63 1013.86 1013.99 1014.04 1014.26 1014.69 1014.81 1014.99 1015.12 1015.39 1015.57 1015.68 1015.73 1015.92 1016.11 1016.26 1016.62 1017.22 1017.93 1018.75
1011.36 1011.41 1011.68 1011.99 1012.27 1012.50 1012.59 1012.73 1012.77 1012.80 1012.82 1012.90 1012.80 1012.77 1012.67 1012.66 1012.61 1012.53 1013.04 1013.38 1013.31 1013.07 1012.97 1012.88 1012.84 1013.03 1013.33 1013.71 1014.08 1014.25 1014.46 1014.40 1015.29 1015.80 1015.88 1015.87 1015.93 1015.92 1016.04 1016.08 1016.60 1017.16 1018.15
1011.11 1011.40 1011.56 1011.78 1012.05 1012.20 1012.26 1012.33 1012.38 1012.45 1012.52 1012.40 1012.17 1011.99 1012.05 1012.19 1012.21 1012.29 1012.41 1012.69 1012.61 1012.57 1012.35 1012.15 1012.19 1012.23 1012.44 1012.66 1012.88 1013.32 1013.34 1013.87 1014.94 1015.49 1015.74 1015.99 1016.07 1016.07 1016.16 1016.21 1016.17 1016.74 1017.49
1011.00 1011.24 1011.48 1011.69 1011.88 1012.04 1012.11 1011.98 1012.02 1012.13 1012.22 1012.17 1012.06 1011.81 1011.64 1011.83 1012.03 1012.07 1012.11 1012.39 1012.46 1012.32 1012.05 1011.59 1011.45 1011.64 1011.88 1012.11 1012.50 1012.63 1012.95 1013.54 1014.38 1015.15 1015.47 1015.74 1015.66 1016.16 1016.59 1016.67 1016.90 1017.22 1017.46
1011.03 1011.33 1011.56 1011.65 1011.86 1011.95 1011.97 1011.97 1012.04 1012.04 1012.17 1012.16 1012.09 1011.93 1011.88 1012.02 1012.09 1011.84 1011.94 1012.03 1012.02 1012.31 1012.21 1011.69 1011.15 1011.43 1011.54 1011.77 1012.01 1012.19 1012.24 1012.49 1013.41 1014.45 1015.11 1014.62 1015.88 1016.35 1017.09 1017.29 1017.65 1018.14 1018.55
1011.11 1011.38 1011.61 1011.66 1011.77 1011.84 1012.06 1012.14 1012.07 1011.96 1012.10 1012.26 1012.27 1012.22 1012.13 1011.97 1011.70 1011.35 1011.25 1011.40 1011.80 1012.26 1011.98 1011.47 1011.25 1011.24 1011.26 1011.03 1011.22 1011.68 1011.79 1011.98 1012.68 1013.76 1014.86 1014.75 1015.86 1016.57 1017.16 1017.55 1018.65 1018.19 1019.42
1011.06 1011.25 1011.40 1011.51 1011.77 1011.92 1012.32 1012.67 1012.65 1012.50 1012.53 1012.47 1012.53 1012.59 1012.37 1011.97 1012.01 1011.97 1012.14 1012.12 1012.11 1011.97 1011.85 1011.52 1011.26 1011.15 1011.10 1010.98 1011.06 1011.50 1011.78 1012.19 1012.77 1013.72 1014.74 1014.96 1015.82 1017.18 1017.56 1017.96 1019.51 1018.85 1019.66
1011.17 1011.41 1011.62 1011.75 1011.76 1011.82 1012.16 1012.66 1012.77 1012.70 1012.71 1012.83 1012.75 1012.76 1012.44 1012.34 1012.06 1011.94 1011.98 1011.91 1011.77 1011.69 1011.56 1011.23 1011.10 1011.11 1011.23 1011.38 1011.68 1011.73 1011.80 1012.60 1012.68 1012.59 1013.68 1015.33 1016.18 1016.87 1018.66 1018.59 1018.82 1019.09 1019.63
1011.10 1011.27 1011.42 1011.60 1011.66 1011.71 1011.97 1012.23 1012.41 1012.68 1012.79 1012.78 1012.66 1012.43 1012.30 1012.04 1012.00 1011.92 1011.88 1011.74 1011.61 1011.50 1011.40 1011.25 1011.29 1011.37 1011.53 1011.82 1012.10 1012.44 1012.76 1012.45 1013.57 1013.50 1015.51 1016.32 1016.87 1017.34 1018.39 1019.03 1019.35 1019.53 1020.02
1011.09 1011.21 1011.31 1011.37 1011.38 1011.37 1011.45 1011.76 1012.17 1012.41 1012.51 1012.56 1012.45 1012.27 1012.01 1011.77 1011.55 1011.62 1011.74 1011.64 1011.59 1011.48 1011.52 1011.51 1011.53 1011.57 1011.88 1012.19 1012.55 1012.99 1013.55 1014.24 1014.45 1015.29 1016.53 1016.54 1017.10 1018.00 1018.40 1018.95 1019.30 1019.89 1020.29
1010.65 1010.91 1011.00 1011.00 1011.09 1011.21 1011.41 1011.66 1011.87 1012.06 1012.21 1012.25 1012.12 1012.05 1011.94 1011.76 1011.60 1011.60 1011.58 1011.51 1011.58 1011.70 1011.86 1011.98 1012.07 1012.16 1012.44 1012.85 1013.26 1013.61 1014.14 1015.21 1016.11 1016.52 1017.10 1016.98 1017.28 1017.79 1018.31 1018.75 1019.42 1019.90 1020.39
1010.36 1010.32 1010.50 1010.73 1010.85 1011.03 1011.32 1011.59 1011.79 1011.90 1011.96 1011.99 1012.03 1012.00 1011.81 1011.68 1011.66 1011.63 1011.63 1011.69 1011.83 1012.06 1012.27 1012.45 1012.71 1012.92 1013.19 1013.52 1014.09 1014.39 1014.99 1015.56 1016.24 1016.69 1017.25 1017.18 1017.52 1017.89 1018.24 1018.69 1019.09 1020.00 1020.56
1010.24 1010.21 1010.20 1010.47 1010.61 1010.72 1010.91 1011.21 1011.43 1011.66 1011.82 1011.90 1012.00 1012.06 1011.93 1011.78 1011.83 1011.84 1011.90 1012.05 1012.19 1012.47 1012.73 1012.96 1013.29 1013.67 1013.92 1014.22 1014.56 1014.96 1015.43 1015.85 1016.20 1016.46 1017.03 1017.61 1017.57 1018.08 1018.37 1018.96 1019.68 1019.86 1020.54
1009.99 1009.93 1009.87 1010.02 1010.36 1010.54 1010.72 1011.02 1011.24 1011.45 1011.67 1011.89 1012.11 1012.24 1012.14 1012.01 1012.06 1012.11 1012.25 1012.48 1012.74 1013.03 1013.24 1013.49 1013.95 1014.24 1014.48 1014.78 1015.02 1015.29 1015.66 1016.13 1016.46 1016.74 1017.29 1017.54 1017.74 1018.33 1019.04 1019.34 1019.75 1020.21 1020.57
1009.86 1009.69 1009.57 1009.59 1009.86 1010.21 1010.51 1010.74 1011.06 1011.34 1011.64 1011.98 1012.17 1012.29 1012.34 1012.35 1012.37 1012.51 1012.76 1013.11 1013.33 1013.45 1013.64 1013.93 1014.23 1014.64 1015.01 1015.18 1015.32 1015.67 1015.91 1016.09 1016.35 1016.77 1016.73 1017.87 1018.10 1018.39 1018.88 1019.26 1019.79 1020.39 1020.62
1009.40 1009.27 1009.29 1009.11 1009.37 1009.75 1010.15 1010.46 1010.82 1011.25 1011.53 1011.98 1012.29 1012.41 1012.47 1012.53 1012.65 1012.92 1013.16 1013.46 1013.74 1013.98 1014.17 1014.31 1014.53 1014.75 1015.15 1015.47 1015.61 1015.83 1016.10 1016.38 1016.33 1016.73 1017.07 1017.57 1018.12 1018.65 1019.05 1019.40 1019.79 1020.23 1020.51
1008.97 1008.75 1008.80 1008.76 1009.04 1009.36 1009.83 1010.21 1010.65 1011.14 1011.63 1012.03 1012.25 1012.52 1012.81 1012.92 1012.96 1013.18 1013.51 1013.72 1013.91 1014.04 1014.19 1014.33 1014.62 1014.92 1015.08 1015.52 1015.81 1016.01 1016.29 1016.59 1016.63 1017.01 1017.26 1017.59 1018.20 1018.73 1019.09 1019.42 1019.79 1020.18 1020.60
1008.69 1008.63 1008.51 1008.47 1008.70 1009.01 1009.43 1009.83 1010.39 1011.07 1011.44 1011.73 1011.93 1012.24 1012.62 1013.00 1013.15 1013.23 1013.34 1013.73 1013.93 1014.01 1013.98 1014.05 1014.25 1014.69 1015.15 1015.44 1015.83 1016.10 1016.39 1016.61 1016.92 1017.24 1017.60 1017.99 1018.39 1018.85 1019.22 1019.52 1019.89 1020.16 1020.49
Wind_Speed
7 6 7 8 8 6 6 6 6 4 5 5 5 5 6 5 5 4 4 4 4 3 2 4 5 3 2 2 2 2 2 3 2 1 1 1 2 3 5 4 5 5 4
8 7 8 7 6 6 7 7 6 6 5 6 4 4 4 5 5 6 6 6 6 6 5 4 6 3 5 3 3 4 3 3 2 3 1 1 1 3 4 5 4 4 4
6 7 7 7 8 9 9 8 7 7 6 5 5 6 6 6 5 6 6 6 6 7 6 5 6 4 4 3 4 4 3 2 2 2 2 0 1 2 3 3 4 4 4
5 5 5 6 5 6 6 5 6 7 7 7 7 7 6 5 6 6 7 7 7 7 7 6 6 6 6 5 5 5 4 3 2 2 2 1 1 2 2 3 3 2 3
7 7 6 4 5 4 5 5 6 6 8 8 8 7 6 6 7 7 7 8 7 8 7 7 7 8 9 7 5 5 6 4 4 4 3 2 2 3 5 4 3 4 3
6 7 4 5 3 4 4 2 3 3 4 6 7 8 8 7 8 12 9 8 8 7 7 7 8 8 9 11 13 11 8 7 7 4 3 5 4 3 4 5 4 3 3
4 4 4 4 5 5 4 5 3 2 2 4 5 5 7 8 11 11 13 8 8 9 9 8 8 7 8 8 8 8 12 12 8 7 6 7 5 6 6 7 8 7 4
4 4 4 4 4 4 5 4 4 4 6 5 7 7 7 8 12 14 14 9 9 9 10 10 10 9 8 8 7 8 8 8 9 7 7 5 6 3 7 6 7 6 5
5 5 4 4 4 4 5 5 6 5 7 8 7 8 8 9 13 13 10 7 9 11 10 10 10 10 11 13 8 9 8 8 2 5 4 4 4 5 4 6 6 7 3
5 5 3 3 4 4 5 5 4 4 6 5 8 9 9 9 10 12 10 6 8 8 9 11 15 14 10 13 11 10 10 10 7 5 5 5 4 5 9 5 7 8 4
4 3 3 3 4 4 4 3 3 5 6 8 9 7 7 7 7 7 6 6 6 6 7 7 7 15 16 15 18 11 12 7 7 5 4 4 3 4 3 2 3 4 4
3 3 2 2 2 2 4 4 4 3 4 5 6 5 3 3 3 6 6 7 5 5 8 6 6 9 13 15 12 11 12 11 7 7 6 5 5 5 4 6 8 7 6
4 3 2 2 2 2 3 3 3 1 1 2 2 3 2 2 2 6 3 2 3 3 5 8 11 9 9 8 14 12 19 9 10 8 6 4 5 5 6 7 9 10 11
5 4 3 2 3 2 2 3 3 2 1 1 2 3 3 3 3 2 3 2 3 5 6 5 5 7 7 6 5 9 9 8 9 8 7 7 8 7 7 5 6 8 7
3 1 2 2 3 2 1 2 3 2 2 2 2 2 3 4 1 2 3 3 3 3 4 2 1 2 3 3 3 6 4 6 8 9 11 10 10 8 7 7 1 3 4
1 1 1 2 3 2 2 2 3 4 5 6 6 4 3 8 9 8 8 9 10 6 2 2 1 1 1 2 3 3 6 5 6 11 11 9 12 10 7 3 3 4 6
3 2 1 2 4 3 3 3 3 3 5 5 3 7 9 12 7 7 8 6 5 4 1 0 1 3 5 7 7 7 7 10 13 11 9 9 7 7 5 3 5 5 5
1 2 2 3 3 4 3 3 3 3 3 2 6 2 6 8 7 7 7 5 2 2 1 3 4 5 6 8 8 9 9 7 9 9 8 8 6 3 4 5 6 6 6
2 3 3 2 2 2 2 2 1 1 1 2 1 1 1 2 7 7 4 2 3 4 4 4 4 6 7 8 9 9 10 8 6 6 3 4 5 6 6 7 6 7 7
3 6 4 2 2 2 3 3 2 1 1 1 1 0 0 1 2 2 3 4 5 5 5 6 6 6 7 8 7 7 8 7 5 4 3 3 5 4 7 8 7 6 3
3 3 3 2 3 3 3 3 3 3 2 2 1 2 2 2 3 4 5 5 6 6 6 6 6 6 6 6 6 6 6 5 4 5 5 4 5 5 6 6 6 6 7
3 4 4 4 3 4 4 4 4 4 3 3 1 2 3 3 4 5 6 6 5 5 4 6 5 4 4 4 4 4 4 4 5 7 6 5 6 7 6 7 7 6 7
5 5 6 4 5 5 5 5 5 5 4 4 3 3 3 4 5 6 6 6 5 5 5 5 5 4 3 3 4 4 6 7 7 6 8 7 6 6 7 8 8 6 6
5 6 7 7 5 6 5 6 5 5 5 4 3 3 4 4 6 6 6 7 6 4 3 4 4 6 4 3 4 4 3 4 6 7 10 8 7 6 6 6 6 7 6
5 5 6 5 5 6 6 6 6 6 6 5 4 3 3 4 6 6 6 5 3 4 5 6 5 5 7 7 6 6 7 10 7 7 5 7 8 8 6 5 6 5 6
4 4 5 4 6 6 7 7 7 6 7 6 5 5 5 4 4 4 5 3 4 4 6 5 6 7 7 7 8 9 8 10 8 7 5 5 6 5 4 6 8 6 7
Wind_Direction
188 185 192 196 202 192 198 206 202 212 225 229 222 215 225 223 212 204 214 218 230 238 223 228 243 232 240 193 210 212 211 187 218 272 239 168 135 146 129 122 125 115 121
190 185 198 184 183 196 207 216 210 200 212 228 226 227 238 234 200 214 214 212 214 230 233 222 243 214 237 235 219 221 219 212 188 242 236 196 120 104 146 139 130 121 129
177 189 197 197 187 206 209 212 206 207 214 223 218 227 223 232 225 217 216 221 227 225 232 235 248 225 242 215 220 225 236 235 227 217 257 169 133 151 117 107 125 124 118
178 180 189 208 208 198 204 202 211 213 215 210 212 226 229 224 229 226 224 223 227 234 235 223 238 229 235 230 234 235 221 215 223 245 249 243 182 144 138 142 147 115 124
183 192 204 166 194 219 221 203 204 219 231 218 212 219 230 223 232 220 219 224 223 226 233 240 239 231 219 207 215 229 215 216 207 221 236 212 198 184 201 165 149 137 113
197 212 157 165 195 230 220 234 251 220 240 234 217 212 219 232 232 227 214 217 223 225 232 237 242 242 233 222 223 230 204 209 212 195 209 221 222 204 169 173 140 153 181
198 204 199 188 190 197 198 206 215 247 233 253 237 229 234 232 223 232 231 232 224 227 229 233 240 238 228 239 231 234 226 218 206 198 214 214 222 198 174 173 184 187 180
190 200 202 215 233 218 212 218 211 211 222 217 234 225 221 236 230 222 228 230 237 233 229 228 231 236 226 219 224 230 225 217 227 221 222 231 230 209 194 188 178 126 82
206 215 210 204 224 219 227 227 229 218 225 233 233 236 235 242 223 228 220 216 230 238 235 231 229 236 228 202 207 226 229 223 180 252 225 133 144 152 170 145 154 158 144
209 222 191 195 231 230 230 242 229 225 240 232 241 233 234 251 243 223 206 225 231 232 233 232 220 229 220 193 207 213 223 223 185 165 136 108 119 123 178 196 167 183 138
180 175 220 215 231 255 275 225 239 232 244 251 245 238 230 232 253 243 200 209 227 243 238 235 229 214 225 209 208 213 217 170 160 159 150 142 129 115 115 144 167 168 147
179 190 203 264 286 275 259 279 275 271 277 284 273 253 237 214 159 113 116 215 264 251 258 252 246 228 241 237 227 239 164 143 153 163 169 166 136 113 89 91 85 75 56
147 173 221 282 273 291 279 259 257 253 298 313 309 317 299 262 228 124 118 317 268 262 272 288 319 287 242 235 223 208 166 166 166 169 171 142 106 112 111 88 78 67 60
171 183 183 236 276 226 314 318 279 253 265 250 289 299 305 296 309 26 41 14 274 253 262 269 282 263 227 223 181 193 199 178 169 163 140 111 111 111 99 81 76 88 76
140 114 313 297 270 252 109 325 318 357 337 311 300 306 309 299 24 9 321 298 277 273 272 250 248 225 237 214 190 180 169 153 142 140 133 129 115 101 118 110 137 107 124
196 250 282 303 274 224 203 210 218 247 304 290 291 247 268 249 292 313 305 275 258 226 239 266 270 259 23 61 68 104 99 97 120 125 119 130 129 127 136 142 133 111 121
225 254 260 259 270 241 205 209 254 211 225 225 272 279 233 258 277 302 278 257 251 190 246 63 115 108 98 96 101 102 93 114 123 107 110 122 115 118 133 125 125 134 126
197 194 250 266 263 265 236 217 219 260 286 278 233 290 287 275 239 224 207 158 110 93 119 120 113 106 104 107 110 113 110 107 103 112 131 125 122 135 140 154 140 137 127
211 237 235 235 246 214 168 164 189 239 280 280 297 16 359 186 150 155 143 103 102 89 84 79 82 96 102 107 105 99 103 99 107 107 116 131 152 168 144 123 118 128 128
275 252 236 252 195 170 156 156 166 186 186 120 77 357 316 33 73 77 77 90 95 89 89 93 90 93 93 99 103 107 114 114 113 112 132 134 144 137 119 128 134 139 128
263 264 263 224 210 183 168 166 158 154 153 139 107 5 344 99 104 102 101 98 102 105 101 99 98 94 99 103 107 115 124 130 133 123 132 129 129 122 117 117 131 120 130
270 263 226 199 192 175 178 164 161 155 148 140 93 32 82 94 99 109 110 104 94 90 87 102 95 94 107 114 113 105 103 127 143 143 137 116 125 120 129 138 140 139 149
279 272 252 209 184 166 166 163 162 157 145 133 117 112 111 112 114 108 105 110 100 99 104 107 108 103 99 112 125 153 158 160 153 150 128 139 137 136 143 141 152 157 163
251 236 249 224 176 169 170 165 153 136 126 134 140 137 137 130 125 122 122 122 114 105 125 135 149 149 148 157 157 150 138 144 141 142 138 142 136 136 143 148 156 159 153
271 238 229 214 178 178 163 157 146 146 160 169 161 151 150 146 142 143 149 153 153 156 160 156 156 162 165 166 180 172 149 145 137 137 140 135 145 152 154 165 166 156 142
281 279 243 211 171 171 161 153 151 153 175 179 171 166 164 178 177 176 173 199 201 184 163 156 155 164 176 182 191 166 147 156 151 156 136 147 152 159 163 160 164 162 160